Content
SEND FEEDBACK

Daily
Averages
Monthly
Summary
Mexico

CANCUN, QUINTANA ROO


Home > North America > Mexico > Quintana Roo
Elevation: 9 meters     Latitude: 21 09N     Longitude: 086 49W

WEATHER
 
SELECT A DAY
Number of Records: 167,199;   Date Range: 1/1/95 - 11/25/14
 
SHARE

PRINT THIS DATA

[ ← Previous Day ]
WEATHER ALMANAC - 28 JUNE, 2013
[ Next Day → ]
[ °F ]   °C
We're sorry. There is no daily almanac available for Cancun, Quintana Roo on 28 June, 2013.
WEATHER BY HOUR - 28 JUNE, 2013
[ °F ]   °C
Local TimeTemperatureDewpointHumidityBarometerVisibilityWind DirectionWind SpeedGust SpeedPrecipitationEventsConditions
1:40 AM26 °C24 °C89 %1014.6 hPa9.7 kmNorth (10°)3.7 km/hMostly Cloudy
2:43 AM25 °C24 °C94 %1013.9 hPa9.7 kmNNW (340°)3.7 km/hMostly Cloudy
3:46 AM24 °C24 °C100 %1013.2 hPa9.7 kmNW (320°)5.6 km/hMostly Cloudy
4:44 AM24 °C24 °C100 %1013.5 hPa9.7 kmNNW (330°)7.4 km/hOvercast
5:44 AM25 °C24 °C94 %1013.5 hPa11.3 kmCalmMostly Cloudy
6:42 AM24 °C24 °C100 %1014.2 hPa11.3 kmNW (320°)7.4 km/hMostly Cloudy
7:42 AM26 °C25 °C94 %1014.2 hPa11.3 kmNorth (350°)3.7 km/hMostly Cloudy
8:43 AM28 °C25 °C84 %1014.2 hPa11.3 kmCalmMostly Cloudy
9:25 AM28 °C25 °C84 %1014.2 hPa6.4 kmESE (110°)5.6 km/hRainRain
9:42 AM28 °C25 °C84 %1014.2 hPa8 kmESE (120°)5.6 km/hRainLight Rain
9:53 AM28 °C25 °C84 %1014.2 hPa9.7 kmEast (100°)3.7 km/hMostly Cloudy
10:45 AM29 °C25 °C79 %1013.9 hPa9.7 kmNNE (30°)7.4 km/hMostly Cloudy
11:41 AM30 °C24 °C70 %1013.9 hPa9.7 kmNE (40°)11.1 km/hMostly Cloudy
12:42 PM31 °C22 °C58 %1013.5 hPa9.7 kmEast (100°)14.8 km/hMostly Cloudy
1:42 PM29 °C24 °C74 %1013.5 hPa9.7 kmNE (50°)5.6 km/hMostly Cloudy
2:42 PM26 °C21 °C74 %1012.9 hPa9.7 kmWNW (300°)11.1 km/hMostly Cloudy
3:53 PM27 °C22 °C74 %1012.5 hPa9.7 kmNNE (20°)3.7 km/hMostly Cloudy
4:40 PM29 °C24 °C74 %1011.9 hPa11.3 kmNE (50°)7.4 km/hMostly Cloudy
5:40 PM29 °C24 °C74 %1012.2 hPa11.3 kmEast (90°)7.4 km/hMostly Cloudy
6:45 PM29 °C24 °C74 %1012.2 hPa11.3 kmENE (70°)7.4 km/hMostly Cloudy
7:41 PM28 °C24 °C79 %1012.9 hPa11.3 kmCalmMostly Cloudy
8:42 PM27 °C24 °C84 %1012.9 hPa11.3 kmCalmMostly Cloudy
9:48 PM26 °C24 °C89 %1012.2 hPa11.3 kmCalmMostly Cloudy
10:47 PM25 °C24 °C94 %1013.5 hPa11.3 kmCalmMostly Cloudy
11:46 PM25 °C24 °C94 %1013.2 hPa11.3 kmCalmMostly Cloudy
Hourly data recorded from MMUN, located 0 kilometers away from Cancun, Quintana Roo







STORIES FROM OUR PARTNERS